Location: Henham
(51.9333°N, 0.2500°E)
Time: 01:01:37
(UTC+00:00)

Timation 2 Rocket - Pass Details

Date: 23 October 2019
Orbit: 907 x 1074 km, 70.0° (Epoch: 22 November)

Event Time Altitude Azimuth Distance (km) Brightness Sun altitude
Rises 19:31:41 0° 327° (NNW) 3,552 7.6 -25.6°
Reaches altitude 10° 19:34:19 10° 334° (NNW) 2,603 6.7 -26.0°
Enters shadow 19:39:39 45° 35° (NE) 1,228 4.3 -26.8°
